This demonstration page uses our WeatherBlox Daily Observations layout. Learn more.

38.88101, -77.10428

Hourly Observations for March 16, 2019

Temp ( °F °C ) Dew Point ( °F °C ) Humidity (%) Winds ( mph kmh ) Pressure ( in mb ) Visibility ( mi km ) Precip ( " mm )
12:52 am 00:52 Clear 58 14.4 32 0 38 38 NW 20 31 29.88 1012 10 16.09344 0 0
1:52 am 01:52 Clear 55 12.8 32 0 42 42 NW 12 19 29.91 1013 10 16.09344 0 0
2:52 am 02:52 Clear 52 11.1 31 -0.6 45 45 NW 23 37 29.94 1014 10 16.09344 0 0
3:52 am 03:52 Clear 50 10 32 0 50 50 NW 17 28 29.97 1015 10 16.09344 0 0
4:52 am 04:52 Mostly Clear 49 9.4 27 -2.8 43 43 WNW 18 30 30 1016 10 16.09344 0 0
5:52 am 05:52 Mostly Clear 48 8.9 26 -3.3 42 42 WNW 12 19 30.03 1017 10 16.09344 0 0
6:52 am 06:52 Mostly Clear 47 8.3 24 -4.4 41 41 WNW 12 19 30.06 1018 10 16.09344 0 0
7:52 am 07:52 Partly Cloudy 46 7.8 21 -6.1 37 37 WNW 20 31 30.09 1019 10 16.09344 0 0
8:52 am 08:52 Partly Cloudy 47 8.3 21 -6.1 36 36 WNW 17 28 30.12 1020 10 16.09344 0 0
9:52 am 09:52 Partly Cloudy 47 8.3 20 -6.7 34 34 NW 23 37 30.15 1021 10 16.09344 0 0
10:52 am 10:52 Partly Cloudy 49 9.4 20 -6.7 32 32 W 21 33 30.15 1021 10 16.09344 0 0
11:52 am 11:52 Mostly Sunny 51 10.6 20 -6.7 29 29 NW 20 31 30.15 1021 10 16.09344 0 0
12:52 pm 12:52 Partly Cloudy 52 11.1 19 -7.2 27 27 WNW 20 31 30.12 1020 10 16.09344 0 0
1:52 pm 13:52 Partly Cloudy 54 12.2 20 -6.7 26 26 W 14 22 30.12 1020 10 16.09344 0 0
2:52 pm 14:52 Partly Cloudy 56 13.3 21 -6.1 26 26 NNW 17 28 30.09 1019 10 16.09344 0 0
3:52 pm 15:52 Partly Cloudy 56 13.3 19 -7.2 24 24 NW 14 22 30.09 1019 10 16.09344 0 0
4:52 pm 16:52 Partly Cloudy 56 13.3 20 -6.7 24 24 WNW 13 20 30.09 1019 10 16.09344 0 0
5:52 pm 17:52 Partly Cloudy 54 12.2 20 -6.7 26 26 NW 16 26 30.09 1019 10 16.09344 0 0
6:52 pm 18:52 Mostly Cloudy 51 10.6 19 -7.2 28 28 NNW 16 26 30.12 1020 10 16.09344 0 0
7:52 pm 19:52 Partly Cloudy 49 9.4 18 -7.8 29 29 NW 16 26 30.15 1021 10 16.09344 0 0
8:52 pm 20:52 Partly Cloudy 47 8.3 20 -6.7 34 34 NNW 15 24 30.18 1022 10 16.09344 0 0
9:52 pm 21:52 Partly Cloudy 46 7.8 20 -6.7 35 35 NNW 18 30 30.21 1023 10 16.09344 0 0
10:52 pm 22:52 Mostly Cloudy 44 6.7 20 -6.7 38 38 NNW 12 19 30.21 1023 10 16.09344 0 0
11:52 pm 23:52 Mostly Cloudy 43 6.1 20 -6.7 40 40 N 7 11 30.21 1023 10 16.09344 0 0

Powered by AerisWeather